Weather History for Sioux Falls, SD

Change the Weather History Date:

Wednesday, March 5, 2014

  Actual Average Record
Temperature  
Mean Temperature 19 °F 28 °F  
Max Temperature 24 °F 38 °F 71 °F (2000)
Min Temperature 13 °F 19 °F -19 °F (1960)
Degree Days  
Heating Degree Days 46 37  
Month to date heating degree days 306 188  
Since 1 July heating degree days 6653 6038  
Cooling Degree Days 0 0  
Month to date cooling degree days 0 0  
Year to date cooling degree days 0 0  
Moisture  
Dew Point 13 °F    
Average Humidity 80    
Maximum Humidity 92    
Minimum Humidity 68    
Precipitation  
Precipitation T in 0.04 in 0.76 in (1915)
Month to date precipitation 0.18 0.18  
Year to date precipitation 1.17 1.34  
Snow  
Snow T in 0.30 in 9.00 in (1915)
Month to date snowfall 2.6 1.5  
Since 1 July snowfall 36.8 33.0  
Snow Depth 3.00 in    
Sea Level Pressure  
Sea Level Pressure 30.33 in    
Wind  
Wind Speed 11 mph (ESE)    
Max Wind Speed 20 mph    
Max Gust Speed 25 mph    
Visibility 8 miles    
Events Snow    
T = Trace of Precipitation, MM = Missing Value Source: NWS Daily Summary

Daily Weather History Graph

Daily Weather History Graph

Search for Another Location

Airport:

Trip Planner

Search our weather history database for the weather conditions in past years. The results will help you decide how hot, cold, wet, or windy it might be!

Date:

Astronomy

Mar. 05, 2014 Rise Set
Actual Time 6:56 AM CST 6:20 PM CST
Civil Twilight 6:28 AM CST 6:49 PM CST
Nautical Twilight 5:54 AM CST 7:22 PM CST
Astronomical Twilight 5:21 AM CST 7:56 PM CST
Moon 9:13 AM CST (3/5) 11:40 PM CST (3/5)
Length of Visible Light 12h 21m
Length of Day
11h 24m
Waxing Crescent, 23% of the Moon is Illuminated
Mar 5
Waxing Crescent
Mar 8
First Quarter
Mar 16
Full
Mar 23
Last Quarter
Mar 30
New

Hourly Weather History & Observations

Time (CST) Temp. Windchill Dew Point Humidity Pressure Visibility Wind Dir Wind Speed Gust Speed Precip Events Conditions
12:56 AM 15.1 °F 1.1 °F 10.9 °F 84% 30.29 in 10.0 mi ENE 12.7 mph - 0.00 in   Overcast
1:56 AM 15.1 °F 1.8 °F 10.9 °F 84% 30.29 in 10.0 mi ENE 11.5 mph - N/A   Overcast
2:56 AM 15.1 °F 2.5 °F 10.9 °F 84% 30.30 in 10.0 mi ENE 10.4 mph - N/A   Overcast
3:35 AM 15.1 °F 2.5 °F 10.9 °F 84% 30.21 in 10.0 mi ENE 10.4 mph - N/A   Overcast
3:56 AM 14.0 °F 2.0 °F 10.0 °F 84% 30.29 in 10.0 mi ENE 9.2 mph - N/A   Mostly Cloudy
4:56 AM 12.9 °F 1.6 °F 9.0 °F 84% 30.32 in 10.0 mi NE 8.1 mph - N/A   Overcast
5:56 AM 12.9 °F 1.6 °F 10.0 °F 88% 30.33 in 9.0 mi ENE 8.1 mph - N/A   Overcast
6:56 AM 12.9 °F 0.7 °F 10.0 °F 88% 30.37 in 10.0 mi NE 9.2 mph - N/A   Overcast
7:56 AM 12.9 °F 2.6 °F 10.0 °F 88% 30.39 in 8.0 mi NE 6.9 mph - N/A   Overcast
8:56 AM 14.0 °F 2.9 °F 10.0 °F 84% 30.41 in 7.0 mi NE 8.1 mph - 0.00 in Snow Light Snow
9:56 AM 16.0 °F 4.4 °F 10.9 °F 81% 30.41 in 8.0 mi East 9.2 mph - 0.00 in Snow Light Snow
10:56 AM 17.1 °F 3.6 °F 12.0 °F 81% 30.40 in 10.0 mi ESE 12.7 mph - 0.00 in   Overcast
11:56 AM 19.9 °F 8.6 °F 14.0 °F 78% 30.39 in 10.0 mi East 10.4 mph - N/A   Overcast
12:56 PM 21.0 °F 11.4 °F 14.0 °F 74% 30.38 in 10.0 mi ESE 8.1 mph - N/A   Mostly Cloudy
1:27 PM 21.9 °F 11.7 °F 14.0 °F 72% 30.28 in 10.0 mi SE 9.2 mph - N/A   Scattered Clouds
1:56 PM 23.0 °F 12.4 °F 15.1 °F 72% 30.36 in 10.0 mi SSE 10.4 mph - N/A   Scattered Clouds
2:56 PM 23.0 °F 11.7 °F 15.1 °F 72% 30.35 in 10.0 mi ESE 11.5 mph - N/A   Scattered Clouds
3:56 PM 24.1 °F 15.2 °F 15.1 °F 69% 30.35 in 10.0 mi SSE 8.1 mph - N/A   Scattered Clouds
4:56 PM 23.0 °F 11.7 °F 15.1 °F 72% 30.34 in 10.0 mi SE 11.5 mph - N/A   Partly Cloudy
5:56 PM 21.9 °F 9.2 °F 14.0 °F 72% 30.32 in 10.0 mi SE 13.8 mph - N/A   Partly Cloudy
6:56 PM 19.9 °F 6.7 °F 14.0 °F 78% 30.32 in 9.0 mi SE 13.8 mph - N/A   Partly Cloudy
7:56 PM 18.0 °F 6.9 °F 14.0 °F 84% 30.33 in 8.0 mi SSE 9.2 mph - N/A   Partly Cloudy
8:56 PM 17.1 °F 1.5 °F 14.0 °F 88% 30.32 in 6.0 mi SSE 17.3 mph 24.2 mph N/A   Overcast
9:08 PM 17.1 °F 2.0 °F 14.0 °F 88% 30.23 in 5.0 mi SSE 16.1 mph - N/A   Overcast
9:56 PM 18.0 °F 4.2 °F 16.0 °F 92% 30.32 in 4.0 mi South 13.8 mph - N/A   Overcast
10:56 PM 19.0 °F 6.8 °F 17.1 °F 92% 30.30 in 2.0 mi SSE 11.5 mph - N/A   Overcast
11:44 PM 19.0 °F 4.0 °F 16.0 °F 88% 30.21 in 3.0 mi South 17.3 mph - N/A   Overcast
11:56 PM 19.0 °F 8.2 °F 17.1 °F 92% 30.29 in 3.0 mi South 9.2 mph 20.7 mph N/A   Overcast